Flag for U.S.A. Weather past 2 weeks in Birmingham, Alabama, U.S.A.

Now
73 °F

Partly sunny.


Feels Like: 77 °F
Forecast: 52 / 78 °F
Wind: 6 mph from South

Location: Birmingham International Airport


UV Index: 5 (Moderate)

Visibility: 10 mi


Pressure: 30.13 "Hg

Humidity: 48%

Dew point: 52 °F

Location of BirminghamLocation

Historic Weather in Birmingham

°F

Birmingham temperature yesterday

Maximum temperature yesterday: 79 °F (at 2:53 PM)
Minimum temperature yesterday: 55 °F (at 5:53 AM)
Average temperature yesterday: 66 °F

Past Weeks' High & Low Weather Summary

 TemperatureHumidityPressure
High81 °F (Apr 12, 4:53 PM)97% (Apr 7, 4:53 AM)30.37 "Hg (Apr 7, 4:53 AM)
Low33 °F (Apr 16, 4:53 AM)22% (Apr 9, 3:53 PM)29.64 "Hg (Apr 7, 8:53 AM)
Average60 °F61%30.08 "Hg
* Reported Apr 6 9:53 AM — Apr 21 9:53 AM, Birmingham, Weather by CustomWeather, © 2014

Note: Actual official high and low records may vary slightly from our data, if they occured in-between our weather recording intervals... More about our weather records

Advertising

Historic Weather Conditions — Data for Previous 24 hours

 ConditionsComfort  
Time TempWeatherWind HumidityBarometerVisibility
9:53 AM
Apr 21
70 °FPartly sunny.5 mph55%30.16 "Hg10 mi
8:53 AM66 °FPartly sunny.6 mph61%30.17 "Hg10 mi
7:53 AM61 °FPartly sunny.No wind70%30.17 "Hg10 mi
6:53 AM54 °FPassing clouds.No wind83%30.16 "Hg10 mi
5:53 AM52 °FPassing clouds.No wind86%30.15 "Hg10 mi
4:53 AM53 °FClear.No wind83%30.14 "Hg10 mi
3:53 AM53 °FClear.No wind83%30.13 "Hg10 mi
2:53 AM54 °FClear.No wind80%30.13 "Hg10 mi
1:53 AM55 °FClear.No wind80%30.13 "Hg10 mi
12:53 AM57 °FClear.No wind74%30.14 "Hg10 mi
11:53 PM
Apr 20
58 °FClear.No wind72%30.14 "Hg10 mi
10:53 PM59 °FPassing clouds.No wind69%30.15 "Hg10 mi
9:53 PM62 °FPassing clouds.No wind62%30.15 "Hg10 mi
8:53 PM66 °FPassing clouds.No wind50%30.14 "Hg10 mi
7:53 PM68 °FPartly sunny.No wind47%30.12 "Hg10 mi
6:53 PM75 °FPartly sunny.5 mph30%30.11 "Hg10 mi
5:53 PM77 °FPartly sunny.5 mph28%30.12 "Hg10 mi
4:53 PM79 °FPartly sunny.No wind26%30.11 "Hg10 mi
3:53 PM79 °FPartly sunny.7 mph25%30.13 "Hg10 mi
2:53 PM79 °FScattered clouds.7 mph26%30.15 "Hg10 mi
1:53 PM77 °FPassing clouds.9 mph26%30.17 "Hg10 mi
12:53 PM74 °FPassing clouds.7 mph28%30.20 "Hg10 mi
11:53 AM71 °FPassing clouds.7 mph31%30.23 "Hg10 mi
Weather by CustomWeather, © 2014

See weather overview